Simultaneous Nadir Overpasses (SNOs) Predictions

Prediction of SNOs between LANDSAT-8 and NOAA-19 Satellite Orbit:

Table of predicted SNOs for the next 14.0 days since TLE Epoch: 12/29/2018
Index Date (LANDSAT-8) Time (LANDSAT-8) Lat,Lon (LANDSAT-8) SZA (LANDSAT-8 ) Date (NOAA-19) Time (NOAA-19) Lat,Lon (NOAA-19) SZA (NOAA-19 ) Distance(km) Time Diff (sec)
1 12/30/2018 21:26:59 78.31,-124.80 101.80 12/30/2018 21:26:46 78.31,-124.79 101.81 0.63 13
2 12/30/2018 22:16:27 -78.27, 42.68 78.25 12/30/2018 22:17:40 -78.25, 42.86 78.24 4.89 73
3 01/02/2019 03:00:43 -78.34, -28.07 78.35 01/02/2019 03:00:11 -78.31, -28.03 78.39 3.72 32
4 01/02/2019 03:50:10 78.29, 139.31 101.58 01/02/2019 03:51:15 78.28, 139.40 101.59 2.37 65
5 01/04/2019 08:34:26 78.35, 68.53 101.43 01/04/2019 08:33:46 78.35, 68.38 101.42 3.38 40
6 01/04/2019 09:23:54 -78.32,-123.97 78.61 01/04/2019 09:24:41 -78.29,-123.98 78.62 2.92 47
7 01/06/2019 14:08:11 -78.34, 165.04 78.85 01/06/2019 14:07:12 -78.35, 165.10 78.84 2.20 59
8 01/06/2019 14:57:37 78.32, -27.38 101.14 01/06/2019 14:58:15 78.32, -27.47 101.14 1.89 38
9 01/08/2019 19:41:53 78.38, -98.17 100.91 01/08/2019 19:40:45 78.37, -98.29 100.88 3.04 68
10 01/08/2019 20:31:22 -78.31, 69.13 79.18 01/08/2019 20:31:42 -78.34, 69.13 79.15 3.28 20
11 01/11/2019 02:05:03 78.35, 165.89 100.54 01/11/2019 02:05:13 78.34, 165.82 100.53 1.93 10




NCC Satellite Simultaneous Nadir Overpasses (SNOs) Prediction Service
